Regional Weather Roundup
Issued by NWS

Home | Current Version | Previous Version | Text Only | Print | Product List | Glossary Off
Versions: 1 2 3 4 5 6 7 8 9 10 11 12 13 14 15 16 17 18 19 20 21 22 23 24 25 26 27 28 29 30 31 32 33 34 35 36 37 38 39 40 41 42 43 44 45 46 47 48 49 50

000
ASUS43 KLSX 301057
RWRMO

WEATHER SUMMARY FOR MISSOURI
NATIONAL WEATHER SERVICE SPRINGFIELD MO
600 AM CDT SUN APR 30 2017

NOTE: "FAIR" INDICATES FEW OR NO CLOUDS BELOW 12,000 FEET WITH NO
       SIGNIFICANT WEATHER AND/OR OBSTRUCTIONS TO VISIBILITY.
       CURRENT SKY AND/OR WEATHER CONDITIONS ARE NOT AVAILABLE FOR
       CHILLICOTHE AND FARMINGTON.

MOZ001>031-035>038-043-044-053-054-301200-
...NORTHERN AND WESTERN MISSOURI...

CITY           SKY/WX    TMP DP  RH WIND       PRES   REMARKS
KANSAS CTY INT LGT RAIN  43  42  97 NE18      29.58F FOG
LEE`S SUMMIT   CLOUDY    45  45 100 NE15      29.57F FOG
ST JOSEPH      CLOUDY    42  42 100 NE16G24   29.64F
CHILLICOTHE      N/A     44  43  96 N15G23    29.68F

$$
MOZ066>068-077>081-088>096-101>105-301200-
...SOUTHWEST MISSOURI...

CITY           SKY/WX    TMP DP  RH WIND       PRES   REMARKS
SPRINGFIELD    LGT RAIN  64  62  93 SE17      29.59R
JOPLIN         LGT RAIN  59  58  96 SW14      29.57R FOG

$$
MOZ032>034-039>042-045>050-055>058-069>072-301200-
...CENTRAL MISSOURI...

CITY           SKY/WX    TMP DP  RH WIND       PRES   REMARKS
COLUMBIA       NOT AVBL
JEFFERSON CITY LGT RAIN  57  54  89 E15G23    29.63F
ROLLA          LGT RAIN  61  32  33 E23       29.64F
SEDALIA        CLOUDY    57  57 100 CALM      29.64R

$$
MOZ051-052-059>065-301200-
...EAST CENTRAL MISSOURI...

CITY           SKY/WX    TMP DP  RH WIND       PRES   REMARKS
ST LOUIS INTL  LGT RAIN  52  49  89 SE6       29.76S

$$
MOZ072>076-082>087-097>100-106>115-301200-
...SOUTH CENTRAL AND SOUTHEAST MISSOURI...

CITY           SKY/WX    TMP DP  RH WIND       PRES   REMARKS
CAPE GIRARDEAU RAIN      64  62  93 NE5       29.75F
FARMINGTON     RAIN      63  61  94 E5        29.74F
POPLAR BLUFF   RAIN      65  64  97 E10       29.72F

$$



USA.gov is the U.S. government's official web portal to all federal, state and local government web resources and services.